Regional Weather Roundup
Issued by NWS

Home | Current Version | Previous Version | Graphics & Text | Print | Product List | Glossary On
Versions: 1 2 3 4 5 6 7 8 9 10 11 12 13 14 15 16 17 18 19 20 21 22 23 24 25 26 27 28 29 30 31 32 33 34 35 36 37 38 39 40 41 42 43 44 45 46 47 48 49 50
000
ASUS44 KMEG 282310
RWRTN
TENNESSEE HOURLY STATE WEATHER ROUNDUP
NATIONAL WEATHER SERVICE MEMPHIS TN
500 PM CST FRI NOV 28 2014

TNZ002-004-019-021-049-052-054-088>092-290000-
WEST TENNESSEE

CITY           SKY/WX    TMP DP  RH WIND       PRES   REMARKS
MEMPHIS INTL   PTCLDY    52  22  30 S12       30.16F
NWS MEMPHIS      N/A     51 N/A N/A MISG        N/A
JACKSON        CLEAR     49  24  37 S8        30.17F
DYERSBURG      CLEAR     48  21  34 S9        30.14F
UNION CITY     CLEAR     43  27  52 S10       30.11F
PARIS          CLEAR     43  25  49 S7        30.14F
HUNTINGDON     CLEAR     42  23  47 S7        30.16F
LEXINGTON      CLEAR     46  23  39 S6        30.17F
SAVANNAH       CLEAR     46  25  42 S5        30.21S
$$

TNZ008-025-027-028-033-062-065-066-290000-
NORTH MIDDLE TENNESSEE

CITY           SKY/WX    TMP DP  RH WIND       PRES   REMARKS
NASHVILLE      PTCLDY    42  22  44 S7        30.22S
CLARKSVILLE    CLEAR     45  24  43 S9        30.16F
COOKEVILLE     CLEAR     36  25  64 CALM      30.21S
CROSSVILLE     CLEAR     38  18  44 S5        30.22S WCI  34
$$

TNZ061-075-076-078-094-096-097-290000-
SOUTH MIDDLE TENNESSEE

CITY           SKY/WX    TMP DP  RH WIND       PRES   REMARKS
FAYETTEVILLE   CLEAR     41  18  38 MISG      30.24S
TULLAHOMA      CLEAR     39  19  45 SW6       30.23S WCI  35
WINCHESTER     CLEAR     39  19  45 SE6       30.25S WCI  35
MCMINNVILLE    CLEAR     41  21  45 CALM      30.22S
COLUMBIA       CLEAR     43  25  49 S3        30.20S
SHELBYVILLE    CLEAR     43  23  45 S6        30.24S
$$

TNZ017-018-042-046-047-290000-
NORTHEAST TENNESSEE

CITY           SKY/WX    TMP DP  RH WIND       PRES   REMARKS
TRI CITIES     PTCLDY    33  21  61 CALM      30.27S
ELIZABETHTON   CLEAR     27  21  80 CALM      30.27S
$$

TNZ012-013-036-069-073-074-290000-
CENTRAL EAST TENNESSEE

CITY           SKY/WX    TMP DP  RH WIND       PRES   REMARKS
KNOXVILLE      CLEAR     39  20  46 CALM      30.27F
OAK RIDGE      CLEAR     38  19  46 CALM      30.29S
GATLINBURG     CLEAR     36  19  51 CALM      30.27S
MORRISTOWN     CLEAR     36  19  51 CALM      30.27R
$$

TNZ083-085-099-290000-
SOUTHEAST TENNESSEE

CITY           SKY/WX    TMP DP  RH WIND       PRES   REMARKS
CHATTANOOGA    CLEAR     43  20  39 CALM      30.28S
$$

SKY/WX REPORTED AS FAIR MEANS FEW OR NO CLOUDS BELOW
12 THOUSAND FEET.



USA.gov is the U.S. government's official web portal to all federal, state and local government web resources and services.